THOR ABLESTAR DEB, 254

Orbit data source: Space-Track

THOR ABLESTAR DEB, 254 is space debris in LEO originally from a launch on Thu, 29 Jun 1961 UTC launched from the Air Force Eastern Test Range (AFETR). Debris objects in space refer to the collection of defunct objects orbiting the Earth. Examples of debris include non-operational satellites, rocket bodies, and fragments generated from explosions, collisions, or faulty payload assembly.

Loading next visibility...
Identifier
254, 1961-015CF
Orbit
LEO
Country
Flag of USUS
Related business
Manufacturer
Unknown
Mission
Spacecraft
Bus & Motor
Unknown
Mass
Unknown
Launch date (UTC)
1961-06-29 (65 years ago)
Launch vehicle
Unknown
Launch site
Air Force Eastern Test Range (AFETR)
Object type
Payload
Rocket body
Debris
Shape & HBR
Unknown shape, 0.1 m
Radar Cross Section
Medium (>0.1 m² and <1 m²)

Expand to show TLE details & history
Last TLE update: 2 days ago

TLE from 2 days ago
0 THOR ABLESTAR DEB
1 00254U 61015CF  26174.47861860  .00001062  00000-0  27636-3 0  9990
2 00254  66.7721 261.8969 0052516  70.0768 290.5989 14.52833013374590
Epoch: 2026-06-23T11:29Z
TLE epoch observation values (Epoch: 2026-06-23T11:29:12.647Z)
Latitude
-0.00002°
Longitude
177.94459°
Altitude
705.608 km
Speed
7.51 km/s
True Right ascension
17h 27m 35s
True Declination
0° 00' 00"
Sunlit
Object was in full shadow at epoch
Visualization orbit readout
Latitude
Unknown
Longitude
Unknown
Altitude
Unknown
Speed
Unknown
Apparent Right ascension
Unknown
Apparent Declination
Unknown
Sunlit
N/A
Visualization observer readout
Local Sidereal Time
11:08:55
Azimuth
Unknown
Elevation
Unknown
Doppler factor
Unknown
Orbital elements
Apogee altitude
752.009 km
Perigee altitude
677.511 km
Semi-major axis
7,092.897 km
Eccentricity
0.00525
Inclination
66.7721°
RAAN
261.8969°
Arg. of periapsis
70.0768°
True anomaly
290.03429°
Mean anomaly
290.5989°
Eccentric anomaly
290.31672°
Mean motion
3.63335 °/min
Orbital period
99.08 mins
BSTAR
0.00027636

Documentation

Showing up to 5 results
|